User: anonymous   Login
Location: Unspecified
(0.0000°N, 0.0000°E)
Time: 10:27:36
(UTC+00:00)
Language:

DIAMOND GREEN - Orbit

View from above orbital plane
View from above orbital plane
View from above satellite
View from above satellite

Ground track
Ground track

The orbit data is extracted from the following two-line orbital elements,

1 42785U 17036W   21017.13334792  .00001077  00000-0  48090-4 0  9996
2 42785  97.2733  70.4238 0011653   4.6431 355.4912 15.23393187198264
Epoch (UTC): 17 January 2021 03:12:01
Eccentricity: 0.0011653
inclination: 97.2733°
perigee height: 487 km
apogee height: 503 km
right ascension of ascending node: 70.4238°
argument of perigee: 4.6431°
revolutions per day: 15.23393187
mean anomaly at epoch: 355.4912°
orbit number at epoch: 19826

The dashed part of the orbit path shows where the satellite is in the earth's shadow,  

DLR